User: anonymous   Login
Location: Unnamed
(23.5608°S, 46.6833°W)
Time: 12:04:34
(UTC-03:00)
Language:

TIGRISAT - Orbit

View from above orbital plane
View from above orbital plane
View from above satellite
View from above satellite

Ground track
Ground track

The orbit data is extracted from the following two-line orbital elements,

1 40043U 14033AK  24193.42683940  .00002955  00000-0  39627-3 0  9998
2 40043  97.6980 355.1131 0054322 223.5333 136.1586 14.79084114541344
Epoch (UTC): 11 July 2024 10:14:38
Eccentricity: 0.0054322
inclination: 97.6980°
perigee height: 594 km
apogee height: 670 km
right ascension of ascending node: 355.1131°
argument of perigee: 223.5333°
revolutions per day: 14.79084114
mean anomaly at epoch: 136.1586°
orbit number at epoch: 54134

The dashed part of the orbit path shows where the satellite is in the earth's shadow,  

DLR